Date,TemperatureHighF,TemperatureAvgF,TemperatureLowF,DewpointHighF,DewpointAvgF,DewpointLowF,HumidityHigh,HumidityAvg,HumidityLow,PressureMaxIn,PressureMinIn,WindSpeedMaxMPH,WindSpeedAvgMPH,GustSpeedMaxMPH,PrecipitationSumIn
2013-2-1,34.7,22.6,14.4,27.8,11.5,-1.0,100,63,39,30.17,29.85,19,2,19,0.00
2013-2-2,36.1,24.8,14.6,31.0,21.3,8.4,100,86,48,30.17,29.93,10,1,10,0.01
2013-2-3,35.5,29.9,22.9,29.4,23.0,19.0,100,76,54,29.97,29.84,12,3,12,0.03
2013-2-4,45.0,32.6,19.5,26.7,21.5,17.3,92,66,43,30.00,29.89,7,1,7,0.00
2013-2-5,48.5,41.1,34.3,37.4,28.8,20.1,87,62,45,29.96,29.85,8,2,8,0.00
2013-2-6,53.9,41.1,32.4,32.8,26.8,20.8,88,59,28,30.14,29.96,4,1,4,0.00
2013-2-7,41.2,38.4,36.0,38.7,31.5,23.8,100,78,52,30.14,29.92,2,0,2,0.27
2013-2-8,44.5,37.4,27.8,44.2,33.8,25.9,100,87,54,30.09,29.85,8,2,8,0.02
2013-2-9,51.8,36.4,22.9,26.2,17.3,3.3,94,53,17,30.21,30.07,7,1,7,0.00
2013-2-10,50.3,42.0,36.0,47.0,26.1,7.5,100,58,18,30.23,30.03,8,1,8,0.49
2013-2-11,52.9,47.2,40.0,51.9,40.5,24.1,100,80,44,30.05,29.98,8,2,9,0.17
2013-2-12,47.7,38.8,32.9,35.5,25.1,15.4,100,61,29,30.08,29.85,6,1,6,0.25
2013-2-13,48.2,37.1,28.9,46.3,34.3,27.7,100,90,64,29.85,29.63,11,2,11,0.14
2013-2-14,47.2,35.7,27.6,28.2,26.2,20.8,96,71,36,29.98,29.85,6,1,6,0.00
2013-2-15,48.0,37.0,27.6,34.5,28.3,25.4,100,73,43,30.02,29.91,8,1,8,0.00
2013-2-16,27.6,23.1,16.1,25.5,17.9,3.7,94,80,53,29.95,29.78,7,2,8,0.00
2013-2-17,30.1,21.7,14.5,10.4,5.1,0.0,72,49,29,30.10,29.88,10,2,11,0.01
2013-2-18,49.6,35.7,19.2,27.0,20.1,10.0,83,54,33,30.18,30.02,6,1,6,0.00
2013-2-19,43.2,35.6,29.1,37.8,25.2,7.5,100,69,37,30.03,29.85,12,2,12,0.18
2013-2-20,40.5,29.9,21.7,15.8,9.0,1.1,63,42,21,30.05,29.97,5,1,5,0.00
2013-2-21,58.3,34.6,21.9,36.0,15.3,8.6,100,50,18,30.15,26.81,5,0,5,0.36
2013-2-22,45.7,37.8,33.2,45.3,37.6,33.2,100,99,91,30.17,30.07,7,1,7,0.37
2013-2-23,51.4,45.4,37.4,51.4,45.4,37.4,100,100,100,30.10,29.93,12,1,12,0.17
2013-2-24,50.6,39.3,32.2,40.6,31.3,24.0,100,76,39,30.12,29.96,8,2,8,0.00
2013-2-25,45.7,35.9,29.0,35.9,29.1,25.0,100,77,52,30.13,30.00,6,1,7,0.00
2013-2-26,49.9,39.6,32.7,48.2,37.6,31.5,100,93,69,30.00,29.62,16,2,17,0.76
2013-2-27,48.6,37.8,30.2,34.4,30.1,26.1,94,75,46,29.86,29.74,18,5,19,0.00
2013-2-28,34.5,29.5,25.9,27.4,24.7,22.8,94,82,67,29.95,29.79,26,4,21,0.00